SCP
0 0 0 -0 -0 -0 -0 -0 0 0 0 0 0 0 0 0 0 0 0 0 0 0 0 0 0 0 0 0 0 0 0 0 0 0 0 0 0 0 0 0 0 0 0 0 0 0 0 0 0
0 0 0 -0 -0 -0 -0 -0 0 0 0 0 0 0 0 0 0 0 0 0 0 0 0 0 0 0 0 0 0 0 0 0 0 0 0 0 0 0 0 0 0 0 0 0 0 0 0 0 0
0 0 0 -0 -0 0 0 0 0 0 0 0 0 0 0 0 0 0 0 0 0 0 0 0 0 0 0 0 0 0 0 0 0 0 0 0 0 0 0 0 0 0 0 0 0 0 0 0 0
0 0 0 0 0 0 0 0 0 0 0 0 0 0 0 0 0 0 0 0 0 0 0 0 0 0 0 0 0 0 0 0 0 0 0 0 0 0 0 0 0 0 0 0 0 0 0 0 0
0 0 0 0 0 0 0 0 0 0 0 0 0 0 0 0 0 0 0 0 0 0 0 0 0 0 0 0 0 0 0 0 0 0 0 0 0 0 0 0 0 0 0 0 0 0 0 0 0
0 0 0 0 0 0 0 0 0 0 0 0 0 0 0 0 0 0 0 0 0 0 0 0 0 0 0 0 0 0 0 0 0 0 0 0 0 0 0 0 0 0 0 0 0 0 0 0 0
0 0 0 0 0 0 0 0 0 0 0 0 0 0 0 0 0 0 0 0 0 0 0 0 0 0 0 0 0 0 0 0 0 0 0 0 0 0 0 0 0 0 0 0 0 0 0 0 0
0 0 0 0 0 0 0 0 0 0 0 0 0 0 0 0 0 0 0 0 0 0 0 0 0 0 0 0 0 0 0 0 0 0 0 0 0 0 0 0 0 0 0 0 0 0 0 0 0
0 0 0 0 0 0 0 0 0 0 0 0 0 0 0 0 0 0 0 0 0 0 0 0 0 0 0 0 0 0 0 0 0 0 0 0 0 0 0 0 0 0 0 0 0 0 0 0 0
0 0 0 0 0 0 0 0 0 0 0 0 0 0 0 0 0 0 0 0 0 0 0 0 0 0 0 0 0 0 0 0 0 0 0 0 0 0 0 0 0 0 0 0 0 0 0 0 0
0 0 0 0 0 0 0 0 0 0 0 0 0 0 0 0 0 0 0 0 0 0 0 0 0 0 0 0 0 0 0 0 0 0 0 0 0 0 0 0 0 0 0 0 0 0 0 0 0
0 0 0 0 0 0 0 0 0 0 0 0 0 0 0 0 0 0 0 0 0 0 0 0 0 0 0 0 0 0 0 0 0 0 0 0 0 0 0 0 0 0 0 0 0 0 0 0 0
0 0 0 0 0 0 0 0 0 0 0 0 0 0 0 0 0 0 0 0 0 0 0 0 0 0 0 0 0 0 0 0 0 0 0 0 0 0 0 0 0 0 0 0 0 0 0 0 0
0 0 0 0 0 0 0 0 0 0 0 0 0 0 0 0 0 0 0 0 0 0 0 0 0 0 0 0 0 0 0 0 0 0 0 0 0 0 0 0 0 0 0 0 0 0 0 0 0
0 0 0 0 0 0 0 0 0 0 0 0 0 0 0 0 0 0 0 0 0 0 0 0 0 0 0 0 0 0 0 0 0 0 0 0 0 0 0 0 0 0 0 0 0 0 0 0 0
0 0 0 0 0 0 0 0 0 0 0 0 0 0 0 0 0 0 0 0 0 0 0 0 0 0 0 0 0 0 0 0 0 0 0 0 0 0 0 0 0 0 0 0 0 0 0 0 0
0 0 0 0 0 0 0 0 0 0 0 0 0 0 0 0 0 0 0 0 0 0 0 0 0 0 0 0 0 0 0 0 0 0 0 0 0 0 0 0 0 0 0 0 0 0 0 0 0
0 0 0 0 0 0 0 0 0 0 0 0 0 0 0 0 0 0 0 0 0 0 0 0 0 0 0 0 0 0 0 0 0 0 0 0 0 0 0 0 0 0 0 0 0 0 0 0 0
0 0 0 0 0 0 0 0 0 0 0 0 0 0 0 0 0 0 0 0 0 0 0 0 0 0 0 0 0 0 0 0 0 0 0 0 0 0 0 0 0 0 0 0 0 0 0 0 0
0 0 0 0 0 0 0 0 0 0 0 0 0 0 0 0 0 0 0 0 0 0 0 0 0 0 0 0 0 0 0 0 0 0 0 0 0 0 0 0 0 0 0 0 0 0 0 0 0
0 0 0 0 0 0 0 0 0 0 0 0 0 0 0 0 0 0 0 0 0 0 0 0 0 0 0 0 0 0 0 0 0 0 0 0 0 0 0 0 0 0 0 0 0 0 0 0 0
0 0 0 0 0 0 0 0 0 0 0 0 0 0 0 0 0 0 0 0 0 0 0 0 0 0 0 0 0 0 0 0 0 0 0 0 0 0 0 0 0 0 0 0 0 0 0 0 0
0 0 0 0 0 0 0 0 0 0 0 0 0 0 0 0 0 0 0 0 0 0 0 0 0 0 0 0 0 0 0 0 0 0 0 0 0 0 0 0 0 0 0 0 0 0 0 0 0
0 0 0 0 0 0 0 0 0 0 0 0 0 0 0 0 0 0 0 0 0 0 0 0 0 0 0 0 0 0 0 0 0 0 0 0 0 0 0 0 0 0 0 0 0 0 0 0 0
0 0 0 0 0 0 0 0 0 0 0 0 0 0 0 0 0 0 0 0 0 0 0 0 0 0 0 0 0 0 0 0 0 0 0 0 0 0 0 0 0 0 0 0 0 0 0 0 0
0 0 0 0 0 0 0 0 0 0 0 0 0 0 0 0 0 0 0 0 0 0 0 0 0 0 0 0 0 0 0 0 0 0 0 0 0 0 0 0 0 0 0 0 0 0 0 0 0
0 0 0 0 0 0 0 0 0 0 0 0 0 0 0 0 0 0 0 0 0 0 0 0 0 0 0 0 0 0 0 0 0 0 0 0 0 0 0 0 0 0 0 0 0 0 0 0 0
0 0 0 0 0 0 0 0 0 0 0 0 0 0 0 0 0 0 0 0 0 0 0 0 0 0 0 0 0 0 0 0 0 0 0 0 0 0 0 0 0 0 0 0 0 0 0 0 0
0 0 0 0 0 0 0 0 0 0 0 0 0 0 0 0 0 0 0 0 0 0 0 0 0 0 0 0 0 0 0 0 0 0 0 0 0 0 0 0 0 0 0 0 0 0 0 0 0
0 0 0 0 0 0 0 0 0 0 0 0 0 0 0 0 0 0 0 0 0 0 0 0 0 0 0 0 0 0 0 0 0 0 0 0 0 0 0 0 0 0 0 0 0 0 0 0 0
Wind_Speed
3 4 3 4 7 7 3 2 3 3 3 3 4 8 8 5 3 5 4 6 8 5 3 4 8 10 11 12 13 14 15 15 16 17 17 18 18 19 19 20 21 21 22 22 23 23 23 24 24
2 3 5 5 6 3 2 2 4 3 6 6 5 6 6 3 3 8 5 6 8 6 3 2 8 9 10 11 12 13 14 15 15 16 17 18 18 19 19 20 20 21 21 22 22 23 23 23 24
1 3 5 6 5 4 5 3 5 4 5 4 4 5 4 6 6 6 6 8 8 5 2 2 8 9 10 11 12 12 13 14 15 16 17 18 18 19 19 20 20 21 21 22 22 22 23 23 24
4 5 6 7 3 1 4 5 6 6 3 5 5 4 2 2 6 7 8 9 8 5 2 2 8 8 9 10 11 12 13 14 15 16 17 18 18 19 19 20 20 21 21 22 22 23 23 24 24
4 5 7 5 2 2 2 6 6 5 5 3 5 5 2 1 5 9 9 9 8 5 2 2 7 7 8 9 10 11 12 13 15 16 17 18 19 19 19 20 20 21 22 22 23 23 23 24 24
5 6 6 3 2 1 3 4 5 4 5 5 7 7 4 3 7 8 8 8 8 6 4 5 7 8 8 8 9 10 11 13 14 15 17 18 19 19 19 20 21 21 22 22 23 23 23 24 24
5 6 5 7 6 4 6 5 7 6 6 8 9 8 3 5 6 8 8 8 7 7 5 4 5 6 8 8 9 10 11 12 13 15 16 17 18 19 19 21 21 22 22 22 22 23 23 24 24
5 7 5 5 6 6 6 5 4 7 5 6 8 10 8 10 8 8 7 7 7 6 5 4 4 4 4 4 8 9 10 11 12 13 14 16 16 17 18 19 20 21 21 21 21 22 23 23 23
4 6 4 8 8 7 7 5 2 2 6 4 3 6 8 14 12 9 6 5 5 5 4 4 4 3 3 2 6 6 8 9 10 9 12 11 5 6 9 16 19 20 20 20 21 22 22 22 20
6 5 6 4 5 8 7 6 8 5 4 2 1 1 9 15 15 13 10 9 7 6 5 4 4 3 2 2 2 2 2 3 3 3 4 3 4 5 9 15 18 19 18 19 20 21 19 15 7
5 4 3 1 2 7 7 6 7 9 7 9 9 9 14 14 13 13 11 10 8 7 6 5 5 4 2 1 0 1 1 1 2 3 3 3 3 3 4 3 6 8 11 7 10 10 7 7 7
5 2 2 1 2 6 8 8 5 9 10 8 12 18 18 17 16 15 12 10 8 8 7 6 5 4 2 1 0 1 0 1 1 1 2 2 2 2 2 2 3 3 3 4 5 4 6 7 7
3 1 1 2 3 5 7 6 5 8 5 5 13 16 18 17 14 10 10 10 9 9 8 7 6 5 3 1 1 1 0 0 0 0 1 2 1 1 2 2 3 3 3 4 4 5 6 6 6
3 3 2 2 2 2 4 3 4 8 6 10 15 17 16 16 14 10 10 11 11 10 9 7 7 5 4 2 1 1 0 0 0 1 1 2 1 0 1 2 3 3 3 3 4 6 5 5 5
4 4 2 2 0 0 2 6 10 5 9 11 13 14 15 14 13 13 14 13 12 11 10 8 8 6 5 3 2 1 0 0 1 1 1 2 1 1 1 2 3 3 3 4 4 5 4 6 7
3 2 3 4 4 2 4 11 8 8 11 12 12 11 13 14 13 12 13 12 12 11 10 9 8 7 5 4 2 1 1 1 1 1 2 2 1 1 1 2 3 3 3 3 4 3 4 6 6
1 2 4 4 6 5 6 12 6 7 11 12 13 13 13 12 13 12 13 13 14 13 12 10 8 8 6 5 3 1 1 1 1 2 2 2 2 2 2 2 3 3 3 3 5 5 4 6 7
4 4 5 6 6 7 7 14 10 7 11 12 12 12 13 16 18 12 13 13 13 12 12 10 9 8 6 4 2 1 1 1 2 2 2 3 2 3 2 2 3 3 3 3 4 5 5 5 6
3 4 6 6 4 8 12 17 15 9 11 12 12 13 16 19 13 11 12 12 12 12 12 11 10 8 6 3 2 2 2 2 2 2 3 3 3 3 3 3 3 3 3 4 5 4 6 5 5
3 4 5 4 2 6 8 15 14 10 13 13 16 17 18 15 11 12 13 13 15 15 14 12 11 10 8 5 4 3 3 3 3 2 2 3 3 3 3 3 3 3 3 5 5 4 4 5 5
3 4 4 3 3 3 5 12 7 4 5 8 9 12 13 17 17 15 16 17 16 16 16 14 13 11 9 7 4 2 1 1 1 2 2 3 3 3 4 4 4 4 3 4 5 5 5 6 6
4 2 1 1 2 5 1 7 10 4 5 9 13 13 15 16 16 15 17 17 18 18 14 13 13 11 10 9 6 6 5 4 4 3 3 4 4 4 4 4 4 4 4 5 6 5 5 6 8
4 1 1 0 1 4 3 4 13 3 7 11 13 16 17 16 16 16 18 19 17 15 14 12 12 11 10 9 9 7 5 5 3 3 4 4 4 4 5 5 4 5 4 5 6 6 6 5 7
1 3 3 4 3 5 6 6 11 7 10 9 9 13 16 15 14 14 13 12 12 12 12 12 13 12 11 10 9 9 8 7 5 5 4 4 3 4 5 5 5 5 5 6 6 6 7 7 7
3 4 4 4 2 7 3 5 14 10 9 9 9 11 12 11 11 11 12 14 14 15 15 14 14 13 12 11 10 10 9 8 8 7 6 5 4 4 5 5 5 5 6 6 6 6 7 7 7
3 6 5 4 5 7 4 9 13 6 6 6 7 6 6 8 9 12 14 15 16 17 17 16 16 13 12 12 11 9 9 6 6 7 6 6 5 5 6 6 6 7 7 7 6 6 7 6 7
2 4 5 4 3 5 8 10 13 4 4 4 5 5 8 9 10 11 11 13 15 17 18 18 17 14 13 12 10 9 9 8 7 7 6 5 5 5 6 6 7 7 7 7 7 6 7 7 8
2 3 4 3 3 6 9 8 8 7 9 9 8 10 12 10 9 10 11 13 14 15 14 14 15 15 12 12 11 9 9 9 8 6 7 7 7 6 6 7 7 7 7 7 7 7 8 8 8
5 4 5 3 4 4 7 12 9 8 9 10 13 13 13 12 12 12 12 12 11 10 12 14 14 12 12 12 10 9 8 8 7 7 7 7 6 7 7 7 7 7 8 8 7 8 8 9 9
7 7 8 5 6 5 5 15 8 9 9 9 11 10 9 10 10 10 10 10 11 13 13 15 14 13 13 12 10 10 8 8 7 7 7 7 7 7 7 7 7 8 8 8 8 9 10 9 10
Wind_Direction
48 91 71 58 57 56 91 119 132 110 69 61 78 89 96 100 143 155 151 136 123 97 44 4 55 54 50 46 43 39 37 34 32 29 26 24 24 23 21 20 18 15 13 12 10 8 7 6 3
78 103 57 60 81 98 198 146 132 140 143 134 88 88 86 83 90 120 153 142 118 103 55 8 67 59 53 48 43 39 36 34 31 29 26 24 23 21 20 18 16 13 12 11 9 7 6 5 2
42 81 79 70 86 165 190 176 153 120 130 115 80 62 100 141 141 153 160 137 113 102 57 11 75 64 55 49 44 39 35 33 31 29 25 23 22 20 19 16 14 12 11 10 8 7 6 4 2
67 54 54 66 74 344 178 173 152 126 97 78 103 89 73 135 165 154 142 128 116 115 66 14 79 67 58 50 44 39 35 32 31 28 25 23 21 19 18 15 12 10 10 9 8 7 6 5 4
64 79 65 62 44 5 139 159 148 133 137 107 114 123 120 2 121 128 136 131 127 130 97 20 75 62 55 49 43 38 35 32 30 28 25 23 19 17 16 13 10 9 9 7 6 6 5 4 3
63 70 87 139 147 130 184 178 143 127 131 126 126 138 185 168 138 143 139 134 132 128 96 44 56 53 47 42 41 38 35 32 31 27 25 23 18 15 15 11 8 8 7 5 4 4 4 3 2
94 89 125 155 160 186 201 170 155 151 158 176 150 136 188 210 182 151 138 133 128 122 109 84 59 41 34 30 38 36 34 32 30 26 24 23 18 14 14 9 6 7 5 4 3 2 2 2 360
114 99 107 160 172 209 182 149 165 157 169 145 140 151 195 203 180 145 135 131 127 121 119 109 81 61 36 11 30 34 33 31 30 24 23 25 20 15 14 5 4 5 3 3 0 360 1 1 358
80 84 162 194 187 199 176 143 113 121 125 127 178 193 194 157 154 142 139 139 142 138 136 129 109 78 40 24 40 29 30 30 35 26 26 30 18 6 15 1 4 3 2 1 358 358 360 359 354
65 129 191 198 200 176 172 154 153 135 149 163 97 45 134 149 161 165 168 168 167 168 167 150 135 118 73 42 44 19 32 35 43 46 40 36 26 11 21 6 5 2 1 360 357 357 357 355 344
68 143 162 354 162 147 145 152 156 146 201 207 191 170 154 163 173 180 180 174 176 173 166 159 152 143 129 98 51 38 29 29 29 37 46 45 38 18 13 2 358 352 357 353 351 349 344 339 338
83 56 116 26 111 139 153 159 184 194 215 206 176 163 164 176 185 188 184 178 173 171 170 165 157 152 157 148 31 124 63 27 22 25 54 63 44 15 355 351 339 341 338 336 337 333 332 332 331
99 124 33 37 90 134 143 174 210 230 229 149 148 162 176 185 191 191 181 174 171 174 172 167 161 160 164 155 238 111 92 312 322 72 72 94 82 14 349 336 333 328 327 330 328 328 328 329 328
118 92 56 25 56 110 153 215 243 242 156 144 161 177 187 192 190 185 179 177 179 176 174 169 165 165 160 163 192 206 231 241 176 153 145 132 135 76 339 326 323 321 321 320 321 318 323 318 319
92 78 359 298 307 266 96 267 237 211 149 165 181 189 195 199 195 193 187 180 180 177 172 172 170 164 161 171 197 176 215 209 209 200 186 179 174 183 292 308 312 308 311 318 319 316 322 324 325
91 65 296 244 199 178 155 258 252 169 164 186 195 199 203 207 205 199 188 181 178 173 172 177 170 161 165 170 180 185 196 206 226 220 214 218 221 218 251 291 295 299 311 320 317 325 325 320 316
13 280 267 262 197 173 194 250 270 171 182 197 202 205 209 213 214 206 193 184 179 176 173 174 166 164 168 168 166 176 191 228 242 236 232 237 243 243 246 272 280 297 310 313 323 333 314 312 314
236 234 255 254 212 178 218 254 262 195 206 212 209 210 213 217 217 204 195 186 180 177 174 172 170 168 161 154 149 156 252 262 259 246 239 237 245 256 261 271 281 296 305 307 309 308 308 299 301
218 235 261 263 197 185 233 256 264 209 214 225 220 216 219 224 219 200 193 185 179 178 177 176 173 172 160 155 165 186 229 249 260 248 233 237 250 265 267 283 285 287 290 293 299 303 308 305 303
242 269 274 283 199 206 263 270 266 215 210 216 217 219 222 226 217 205 194 189 187 185 184 181 180 177 174 169 168 177 194 225 233 242 245 249 257 267 279 271 273 278 284 295 299 302 296 301 317
266 244 256 283 338 274 306 298 280 247 224 230 225 222 223 222 220 209 200 197 194 193 189 187 184 179 177 170 155 158 161 271 264 249 248 255 260 264 269 271 268 271 265 278 287 288 284 300 304
261 234 250 303 345 295 269 296 289 264 259 241 233 227 228 226 222 213 205 201 201 198 190 186 181 179 177 170 169 173 190 210 223 223 235 259 260 265 266 266 265 263 262 269 279 296 281 285 300
230 211 257 280 229 301 261 233 281 286 266 253 235 229 231 227 220 216 209 206 202 193 187 184 179 181 179 177 179 181 200 212 223 233 249 257 261 261 263 262 259 259 261 265 271 282 279 273 281
95 47 44 49 67 286 229 190 274 236 222 243 237 226 228 226 220 220 210 198 193 184 183 181 181 186 183 183 183 188 200 210 222 236 245 251 252 258 261 261 253 256 260 263 267 269 273 274 275
85 72 360 332 333 257 239 215 251 245 224 221 228 228 226 219 212 210 200 194 190 186 187 186 186 189 188 187 191 195 200 204 215 225 232 240 247 251 256 259 254 256 258 262 262 267 270 272 274
187 147 172 245 260 289 293 240 254 258 252 240 242 244 234 221 213 210 205 198 193 190 189 188 190 192 190 192 197 198 199 202 214 220 221 229 235 244 250 251 253 256 260 268 266 268 268 273 272
207 196 177 164 276 276 273 279 295 252 263 250 248 251 244 232 220 215 206 198 194 192 192 191 191 193 193 195 194 198 201 205 214 221 223 231 237 247 248 249 255 259 261 262 265 265 268 271 270
197 151 107 150 254 279 287 271 257 269 249 244 245 244 246 241 231 221 210 203 198 196 193 190 192 195 193 192 195 201 203 207 212 217 227 234 241 246 254 257 258 261 263 262 262 265 266 267 271
173 190 179 179 188 205 280 273 232 241 239 228 233 236 239 235 229 222 214 205 197 189 189 192 195 194 193 194 197 200 201 205 210 218 228 234 240 243 249 254 259 262 264 263 262 264 268 267 272
190 197 163 180 235 207 231 271 257 247 257 237 240 244 242 237 232 221 209 195 193 194 194 196 196 197 198 194 194 200 201 203 212 223 231 233 240 244 247 253 260 264 268 264 263 268 273 268 271